Location: Kumla
(59.1265°N, 15.1401°E)
Time: 18:15:15
(UTC+01:00)

Vanguard 1 Rocket - Pass Details

Date: 07 December 2023
Orbit: 654 x 4218 km, 34.3° (Epoch: 21 February)

Event Time Altitude Azimuth Distance (km) Brightness Sun altitude
Rises 08:19:51 0° 256° (WSW) 7,207 11.6 -2.4°
Reaches altitude 10° 08:27:35 10° 240° (WSW) 5,415 11.2 -1.7°
Maximum altitude 08:35:25 17° 208° (SSW) 3,959 10.9 -1.0°
Drops below altitude 10° 08:41:09 10° 173° (S) 3,756 11.5 -0.5°
Sets 08:45:00 0° 153° (SSE) 4,232 12.8 -0.2°
